Wind_Speed
18 11 17 18 14 18 21 22 22 23 20 23 26 22 14 10 4 5 1 3 5 5 10 14 14 13 10 9 9 9 8 7 7 7 6 5 6 1 2 3 2 5 3 1
14 16 16 15 13 12 13 17 19 17 19 16 18 19 18 13 3 4 4 4 6 8 9 10 12 13 12 9 9 8 8 6 7 7 6 5 3 1 2 1 2 3 3 5
19 17 13 12 12 9 10 14 13 15 14 12 13 16 14 19 3 1 2 4 7 11 13 13 13 13 13 12 10 10 8 5 6 8 8 5 3 2 2 2 2 2 4 5
20 17 15 13 11 5 8 10 12 14 14 14 12 11 13 14 12 9 7 9 8 11 15 16 16 15 16 16 15 14 11 9 7 9 8 6 4 3 2 1 2 4 5 6
23 20 18 12 11 9 4 12 9 14 15 14 16 14 17 16 14 9 8 12 16 12 16 19 18 18 17 15 14 13 12 9 9 9 8 4 3 3 3 3 4 6 6 8
28 24 21 12 11 12 4 9 10 11 12 15 14 16 20 17 14 13 13 6 18 16 19 20 21 21 20 17 15 14 12 11 9 9 9 6 3 4 5 4 5 5 8 8
28 26 16 18 19 17 11 10 9 6 7 11 12 16 18 18 12 13 18 10 20 24 20 21 20 22 22 19 17 15 14 13 12 10 7 5 6 5 6 6 6 5 9 11
24 16 18 20 23 21 13 8 10 2 5 7 10 15 16 18 11 16 4 15 22 24 18 19 20 19 20 19 16 14 13 12 11 9 8 7 7 6 5 7 8 9 10 12
22 15 14 17 28 27 22 12 8 8 5 7 8 12 15 18 13 22 12 9 14 22 19 16 10 12 13 13 14 12 11 11 9 10 10 9 7 6 7 7 9 11 12 14
17 15 16 13 16 17 20 18 13 11 7 4 6 10 13 16 12 21 14 7 29 16 12 7 5 7 6 7 10 11 11 12 11 12 11 10 8 7 9 9 11 14 16 17
20 19 16 10 8 11 20 23 21 16 8 7 4 8 15 14 13 11 11 18 20 13 10 6 5 3 4 4 6 10 12 12 13 15 15 13 10 8 10 11 13 16 17 17
20 19 10 10 7 6 9 17 18 17 10 6 2 7 11 11 12 18 12 11 14 11 9 2 3 4 6 5 6 9 11 11 15 17 16 18 13 12 13 11 13 17 18 18
19 19 12 10 11 9 9 10 14 7 9 9 8 7 8 16 13 8 6 4 4 2 3 5 3 7 9 8 7 6 7 9 11 14 13 15 13 12 13 12 11 14 17 17
18 14 16 15 13 13 12 13 17 18 14 14 15 14 17 12 16 13 10 14 15 15 13 10 8 7 13 13 14 13 13 12 14 16 13 13 14 15 15 15 16 16 17 19
9 12 14 22 20 18 15 14 17 18 16 18 20 19 17 15 10 11 10 11 13 12 14 18 18 17 17 19 20 19 19 19 20 21 20 18 21 18 18 20 23 23 23 21
15 18 17 18 26 25 21 18 16 19 16 17 21 20 19 13 13 18 19 17 17 17 18 18 19 14 15 19 23 24 24 24 24 24 25 27 24 29 25 28 25 25 24 27
17 13 19 19 20 22 23 18 16 18 18 20 19 20 20 17 15 17 16 16 15 14 14 15 15 14 14 16 18 21 24 28 29 32 27 28 25 40 36 26 39 30 30 27
13 14 22 24 20 19 17 15 14 12 13 11 11 16 18 18 20 22 18 16 15 14 14 14 13 14 17 18 20 22 23 25 26 29 30 26 24 27 26 23 24 32 32 29
16 15 18 26 27 26 22 21 21 21 20 18 20 18 19 19 21 17 12 11 14 17 18 19 20 20 18 18 19 20 22 25 26 28 29 28 28 28 28 29 32 33 37 36
15 15 16 16 26 32 25 24 24 25 23 21 21 21 20 20 17 9 11 13 16 18 19 21 19 18 18 19 18 19 22 25 28 29 30 29 29 29 32 33 31 34 36 35
14 15 15 16 16 20 23 28 30 26 23 22 21 20 18 13 11 11 12 13 15 17 16 17 18 20 21 21 22 23 23 23 24 26 28 30 32 34 35 35 35 36 37 35
10 12 13 14 15 15 18 18 19 19 19 17 15 12 12 12 13 14 14 16 16 15 13 16 17 18 16 15 16 15 14 15 17 19 22 25 27 31 34 37 38 38 35 38
9 13 13 13 13 12 14 15 15 16 15 13 11 10 11 11 13 16 17 20 18 17 17 17 16 14 16 18 14 11 13 17 19 22 23 25 27 28 29 31 33 34 35 34
8 11 13 13 12 13 14 14 15 14 12 12 13 13 13 13 14 16 18 17 15 15 13 10 9 11 9 10 14 15 15 19 25 26 23 22 22 23 26 29 31 33 35 33
11 12 12 13 13 11 12 14 15 17 17 17 15 14 15 15 14 17 17 12 13 11 10 8 9 8 11 13 11 12 16 20 27 18 18 19 18 20 24 27 29 29 30 28
16 15 14 13 12 12 14 15 15 16 16 17 18 17 16 15 16 16 13 11 11 9 8 7 8 9 8 8 10 11 15 17 20 16 13 18 19 22 27 29 25 24 25 23
Wind_Direction
157 139 97 79 62 66 61 64 59 68 66 68 59 52 57 85 116 126 36 258 198 204 167 179 191 188 189 184 174 166 155 151 158 170 182 166 174 140 4 49 30 42 75 135
160 134 105 96 85 69 68 62 60 57 68 74 65 55 32 27 137 169 165 215 237 219 214 206 191 187 188 190 199 183 167 172 174 183 194 191 185 122 359 168 359 76 127 135
160 142 129 126 109 115 95 77 69 53 41 40 62 62 41 34 74 300 200 228 240 235 231 222 208 192 186 199 200 192 179 183 195 194 194 194 193 248 198 214 107 139 155 163
166 161 156 152 172 188 116 93 79 50 44 32 45 60 63 47 49 21 297 282 228 230 243 233 216 205 194 193 192 189 186 189 201 196 199 202 209 234 253 242 128 174 190 178
178 180 168 160 196 219 154 117 75 52 37 39 39 51 49 32 31 32 13 281 258 223 231 242 233 219 211 200 201 191 183 189 202 200 200 205 260 279 289 246 183 194 198 182
183 184 183 195 211 232 191 138 86 55 51 44 42 46 35 27 4 332 304 291 238 231 223 230 240 227 220 204 204 200 190 193 205 208 199 191 221 265 273 252 213 206 204 194
190 193 194 210 227 240 212 157 106 56 40 31 31 33 30 17 351 332 302 216 202 229 222 219 229 229 221 218 206 206 199 196 202 198 197 213 221 242 263 248 209 220 215 207
177 179 208 210 231 242 234 192 134 359 4 4 13 26 15 17 14 9 340 199 197 208 228 224 225 229 229 226 215 216 220 200 199 197 214 220 231 258 275 259 236 223 225 223
173 199 182 213 228 238 235 212 176 243 324 321 360 10 5 26 29 35 39 196 199 182 210 217 227 237 238 244 243 229 234 228 217 213 219 235 227 250 266 255 247 227 229 231
174 179 177 208 223 221 212 211 204 223 253 329 2 351 9 34 68 32 49 42 166 159 183 173 185 206 222 242 256 252 232 225 227 228 228 228 240 248 258 257 236 234 236 240
165 173 181 191 203 210 207 222 211 224 253 284 332 356 357 41 35 55 64 85 119 126 128 113 210 206 194 215 246 253 248 245 240 239 243 233 225 242 260 260 246 230 232 238
175 177 190 178 204 186 220 219 206 231 237 279 308 3 10 357 41 94 84 104 118 130 141 135 137 242 260 247 245 252 262 262 257 247 243 248 237 235 244 260 258 244 236 235
195 196 195 223 222 206 208 182 203 216 243 247 262 303 340 331 354 22 21 114 101 162 185 200 189 231 241 249 248 252 270 278 277 267 257 253 249 252 253 252 246 248 252 247
221 216 210 227 228 233 237 209 215 231 248 259 269 282 304 312 313 316 302 300 308 304 287 270 288 253 240 236 237 245 250 262 263 270 269 269 253 236 237 242 241 241 242 243
257 260 231 223 236 242 254 253 242 246 262 271 282 296 312 316 286 290 293 288 297 283 260 258 266 262 249 244 251 252 257 254 258 274 276 266 273 268 256 244 240 234 235 236
266 261 254 240 232 239 244 253 268 278 281 268 273 285 305 306 286 292 297 286 289 274 277 274 277 259 245 244 245 252 257 259 269 278 288 277 261 272 264 271 260 249 243 240
239 242 220 232 242 245 253 260 260 254 265 276 279 287 293 301 319 321 310 302 292 287 282 278 272 273 267 259 255 255 255 264 271 273 279 287 266 285 260 266 267 252 252 259
237 236 210 209 224 232 239 244 248 257 278 285 280 290 291 291 303 313 311 304 304 299 296 291 283 281 278 272 267 264 263 261 259 269 273 277 287 286 260 291 260 259 265 265
245 242 231 222 223 237 240 248 258 271 282 291 300 296 301 294 302 312 307 301 293 291 293 292 293 292 286 277 272 268 265 266 264 262 264 265 264 267 269 264 265 263 264 267
249 246 239 235 234 240 248 255 267 276 282 289 290 290 293 295 298 301 292 289 287 289 289 291 294 294 291 288 283 273 264 258 261 263 264 265 264 263 264 264 263 261 261 262
248 247 240 237 240 243 252 255 264 272 281 278 280 285 284 287 302 303 307 302 301 299 303 301 299 298 296 296 295 288 281 275 272 271 271 274 275 274 270 267 265 262 263 266
240 233 235 235 233 239 249 249 255 262 267 271 268 272 294 303 310 314 314 310 314 312 310 305 300 298 295 299 300 299 299 296 292 288 281 274 270 269 271 272 271 270 264 266
236 232 232 229 229 228 239 249 255 258 259 265 278 284 289 301 306 313 316 317 319 319 318 310 306 300 298 298 299 314 314 311 309 307 298 291 283 277 273 274 279 282 282 276
231 229 230 225 221 211 219 233 246 259 267 270 276 287 294 301 306 306 307 311 312 317 312 309 298 304 306 311 319 331 332 326 319 308 309 301 299 297 291 286 282 278 278 277
227 228 229 220 211 214 225 233 241 250 262 271 279 283 286 286 290 293 298 303 309 314 313 314 308 303 310 327 334 339 334 328 335 327 320 321 314 302 289 284 285 286 285 278
238 231 225 224 230 244 244 239 242 250 260 273 281 283 282 281 280 283 298 294 306 315 322 342 338 339 354 355 336 343 343 335 346 353 354 346 337 317 301 288 282 288 285 281
Height
5919 5921 5920 5921 5922 5922 5922 5922 5921 5923 5924 5924 5922 5921 5919 5918 5920 5922 5924 5925 5925 5924 5924 5926 5930 5930 5931 5933 5935 5937 5937 5938 5938 5938 5941 5942 5943 5943 5943 5944 5945 5943 5944 5944
5918 5919 5919 5923 5924 5924 5925 5924 5923 5924 5926 5928 5926 5924 5922 5919 5921 5922 5923 5925 5926 5927 5926 5926 5928 5929 5930 5933 5936 5938 5938 5939 5940 5940 5942 5944 5944 5944 5944 5945 5945 5944 5944 5944
5916 5918 5920 5924 5926 5927 5926 5925 5926 5925 5925 5926 5927 5926 5924 5924 5922 5924 5925 5927 5928 5929 5929 5929 5930 5929 5931 5933 5936 5939 5939 5940 5941 5942 5943 5944 5945 5945 5945 5945 5945 5945 5945 5945
5916 5918 5922 5925 5927 5928 5927 5926 5926 5925 5925 5925 5926 5927 5926 5927 5928 5927 5926 5926 5930 5930 5930 5932 5932 5932 5930 5931 5934 5937 5939 5941 5942 5943 5943 5944 5945 5944 5944 5944 5944 5946 5945 5945
5917 5919 5923 5925 5927 5928 5929 5928 5927 5927 5927 5927 5927 5928 5928 5925 5925 5925 5925 5925 5925 5929 5930 5931 5934 5934 5933 5932 5935 5936 5937 5940 5942 5942 5943 5943 5944 5944 5943 5944 5944 5944 5945 5946
5914 5919 5924 5925 5926 5928 5929 5930 5929 5930 5929 5929 5929 5929 5926 5922 5922 5921 5920 5920 5922 5925 5927 5929 5932 5934 5933 5932 5933 5934 5935 5937 5939 5940 5941 5940 5941 5943 5943 5943 5944 5944 5945 5946
5915 5920 5924 5926 5926 5928 5929 5930 5930 5931 5930 5930 5930 5929 5926 5923 5919 5916 5909 5913 5914 5919 5922 5925 5929 5932 5933 5932 5932 5933 5934 5934 5936 5937 5938 5940 5941 5943 5943 5943 5943 5944 5945 5946
5916 5922 5921 5924 5926 5927 5930 5931 5929 5930 5930 5930 5930 5929 5927 5924 5919 5915 5907 5907 5910 5917 5921 5925 5928 5931 5932 5931 5931 5931 5934 5934 5935 5936 5938 5939 5940 5941 5942 5942 5942 5943 5944 5945
5916 5918 5922 5924 5923 5925 5928 5929 5930 5930 5930 5930 5930 5929 5927 5925 5920 5916 5910 5907 5909 5916 5919 5924 5929 5932 5934 5933 5934 5933 5934 5933 5934 5936 5936 5938 5938 5939 5939 5940 5940 5941 5941 5942
5915 5918 5920 5922 5922 5922 5925 5927 5929 5929 5929 5930 5930 5928 5928 5925 5922 5918 5916 5908 5907 5916 5922 5925 5927 5930 5931 5932 5932 5932 5932 5932 5932 5934 5935 5936 5937 5937 5938 5937 5937 5938 5940 5940
5914 5917 5920 5920 5920 5920 5921 5924 5926 5928 5929 5930 5931 5930 5928 5927 5924 5922 5920 5920 5922 5923 5924 5926 5928 5928 5928 5929 5930 5932 5932 5931 5931 5931 5934 5934 5932 5934 5935 5934 5933 5933 5935 5936
5913 5916 5917 5918 5918 5919 5920 5922 5926 5927 5929 5930 5930 5931 5927 5927 5927 5925 5925 5923 5922 5922 5924 5925 5926 5925 5925 5926 5927 5928 5929 5929 5930 5929 5929 5931 5929 5929 5930 5930 5930 5929 5931 5932
5913 5915 5916 5917 5918 5919 5921 5923 5925 5926 5928 5929 5930 5931 5929 5925 5925 5925 5926 5926 5926 5926 5926 5925 5925 5925 5925 5924 5925 5925 5926 5926 5927 5928 5927 5929 5927 5926 5926 5925 5925 5926 5926 5928
5912 5914 5915 5917 5918 5919 5921 5923 5924 5926 5927 5927 5928 5929 5929 5928 5925 5922 5921 5919 5919 5919 5919 5919 5919 5920 5920 5921 5921 5922 5921 5923 5924 5925 5925 5924 5922 5919 5920 5920 5919 5920 5921 5923
5909 5909 5911 5913 5915 5917 5919 5920 5923 5925 5925 5926 5926 5927 5927 5926 5924 5921 5920 5920 5919 5918 5917 5916 5916 5916 5915 5916 5916 5915 5916 5917 5919 5919 5919 5918 5918 5918 5917 5916 5916 5913 5913 5916
5905 5906 5907 5908 5911 5913 5915 5918 5920 5921 5923 5923 5923 5924 5925 5924 5921 5919 5917 5916 5915 5914 5913 5912 5912 5912 5911 5911 5911 5910 5911 5911 5913 5914 5913 5913 5910 5914 5912 5914 5914 5909 5907 5906
5899 5901 5903 5905 5906 5909 5912 5914 5915 5918 5920 5921 5921 5921 5920 5919 5916 5914 5912 5909 5908 5907 5907 5907 5907 5907 5907 5907 5907 5907 5907 5907 5907 5906 5905 5905 5903 5903 5900 5902 5909 5906 5899 5898
5895 5896 5899 5902 5903 5905 5908 5910 5913 5915 5917 5918 5918 5917 5916 5915 5914 5911 5908 5906 5904 5902 5901 5901 5901 5902 5902 5903 5904 5903 5903 5902 5901 5898 5898 5898 5896 5894 5894 5895 5898 5896 5892 5894
5891 5892 5895 5897 5899 5902 5904 5906 5909 5910 5912 5913 5912 5912 5912 5911 5910 5908 5905 5903 5901 5900 5897 5895 5895 5895 5895 5896 5896 5896 5895 5894 5893 5890 5890 5890 5890 5890 5888 5889 5889 5885 5884 5884
5887 5889 5892 5893 5895 5896 5900 5902 5904 5904 5907 5907 5907 5907 5907 5906 5905 5906 5904 5901 5898 5896 5893 5890 5889 5887 5886 5886 5887 5887 5886 5885 5884 5882 5881 5879 5879 5878 5878 5877 5877 5876 5875 5873
5883 5884 5887 5888 5891 5892 5895 5898 5898 5900 5906 5902 5902 5902 5902 5901 5901 5900 5897 5894 5892 5890 5887 5884 5882 5880 5878 5878 5878 5878 5878 5877 5877 5876 5873 5871 5870 5869 5868 5868 5868 5868 5866 5864
5879 5881 5882 5885 5887 5889 5889 5892 5894 5896 5897 5897 5898 5898 5897 5896 5894 5892 5891 5889 5888 5885 5883 5880 5877 5875 5873 5873 5873 5872 5872 5871 5870 5867 5865 5864 5862 5861 5858 5858 5858 5858 5858 5856
5877 5878 5880 5882 5883 5885 5886 5887 5888 5889 5891 5892 5893 5894 5894 5893 5891 5889 5886 5883 5881 5879 5878 5875 5872 5871 5870 5870 5869 5870 5868 5866 5862 5859 5855 5853 5853 5852 5851 5849 5846 5844 5843 5844
5874 5875 5876 5878 5880 5882 5883 5884 5884 5885 5887 5888 5889 5890 5889 5889 5887 5885 5882 5880 5879 5876 5874 5872 5871 5869 5868 5867 5867 5865 5861 5858 5854 5850 5847 5845 5844 5843 5842 5841 5839 5836 5833 5833
5872 5873 5874 5876 5878 5880 5881 5882 5882 5883 5883 5884 5885 5885 5886 5885 5883 5881 5879 5877 5876 5875 5873 5871 5869 5868 5867 5867 5865 5862 5858 5854 5849 5844 5843 5840 5836 5834 5831 5830 5828 5826 5825 5825
5868 5870 5871 5873 5875 5876 5877 5877 5878 5880 5880 5880 5880 5881 5880 5879 5877 5876 5875 5874 5872 5871 5870 5869 5867 5866 5866 5864 5862 5859 5855 5852 5848 5844 5841 5838 5835 5832 5826 5821 5818 5816 5815 5815